Time,TemperatureF,DewpointF,PressureIn,WindDirection,WindDirectionDegrees,WindSpeedMPH,WindSpeedGustMPH,Humidity,HourlyPrecipIn,Conditions,Clouds,dailyrainin,SoftwareType,DateUTC
2013-05-14 00:00:00,63.3,51.8,28.60,South,180,4.6,4.6,66,0.00,,,0.00,WeatherDisplay:10.37,2013-05-14 05:00:00,
2013-05-14 00:05:00,63.3,51.3,28.60,South,180,3.5,3.5,65,0.00,,,0.00,WeatherDisplay:10.37,2013-05-14 05:05:00,
2013-05-14 00:10:00,63.0,51.4,28.60,South,180,5.8,5.8,66,0.00,,,0.00,WeatherDisplay:10.37,2013-05-14 05:10:00,
2013-05-14 00:15:00,63.3,51.3,28.61,SE,135,3.5,3.5,65,0.00,,,0.00,WeatherDisplay:10.37,2013-05-14 05:15:00,
2013-05-14 00:20:00,63.3,50.9,28.61,SE,135,3.5,3.5,64,0.00,,,0.00,WeatherDisplay:10.37,2013-05-14 05:20:00,
2013-05-14 00:25:00,63.7,51.3,28.60,South,180,3.5,3.5,64,0.00,,,0.00,WeatherDisplay:10.37,2013-05-14 05:25:00,
2013-05-14 00:31:00,63.7,51.3,28.60,South,180,5.8,5.8,64,0.00,,,0.00,WeatherDisplay:10.37,2013-05-14 05:31:00,
2013-05-14 00:36:00,63.5,51.5,28.60,SE,135,5.8,5.8,65,0.00,,,0.00,WeatherDisplay:10.37,2013-05-14 05:36:00,
2013-05-14 00:41:00,63.5,51.5,28.61,South,180,5.8,5.8,65,0.00,,,0.00,WeatherDisplay:10.37,2013-05-14 05:41:00,
2013-05-14 00:46:00,62.8,51.2,28.61,South,180,4.6,4.6,66,0.00,,,0.00,WeatherDisplay:10.37,2013-05-14 05:46:00,
2013-05-14 00:51:00,62.1,51.0,28.60,South,180,4.5,4.5,67,0.00,,,0.00,WeatherDisplay:10.37,2013-05-14 05:51:00,
2013-05-14 00:56:00,62.6,51.1,28.61,SE,135,5.8,5.8,66,0.00,,,0.00,WeatherDisplay:10.37,2013-05-14 05:56:00,
2013-05-14 01:01:00,63.5,51.5,28.60,South,180,5.8,5.8,65,0.00,,,0.00,WeatherDisplay:10.37,2013-05-14 06:01:00,
2013-05-14 01:07:00,63.5,51.5,28.60,South,180,5.8,5.8,65,0.00,,,0.00,WeatherDisplay:10.37,2013-05-14 06:07:00,
2013-05-14 01:12:00,63.1,51.6,28.60,South,180,6.9,6.9,66,0.00,,,0.00,WeatherDisplay:10.37,2013-05-14 06:12:00,
2013-05-14 01:17:00,63.0,51.4,28.60,South,180,5.8,5.8,66,0.00,,,0.00,WeatherDisplay:10.37,2013-05-14 06:17:00,
2013-05-14 01:22:00,62.2,51.5,28.60,South,180,5.8,5.8,68,0.00,,,0.00,WeatherDisplay:10.37,2013-05-14 06:22:00,
2013-05-14 01:28:00,61.9,51.6,28.60,South,180,4.6,4.6,69,0.00,,,0.00,WeatherDisplay:10.37,2013-05-14 06:28:00,
2013-05-14 01:33:00,61.5,51.6,28.60,South,180,5.8,5.8,70,0.00,,,0.00,WeatherDisplay:10.37,2013-05-14 06:33:00,
2013-05-14 01:38:00,61.9,51.6,28.60,South,180,5.8,5.8,69,0.00,,,0.00,WeatherDisplay:10.37,2013-05-14 06:38:00,
2013-05-14 01:43:00,61.7,51.8,28.60,South,180,4.6,4.6,70,0.00,,,0.00,WeatherDisplay:10.37,2013-05-14 06:43:00,
2013-05-14 01:48:00,61.5,52.0,28.60,South,180,5.8,5.8,71,0.00,,,0.00,WeatherDisplay:10.37,2013-05-14 06:48:00,
2013-05-14 01:54:00,61.9,52.0,28.60,South,180,3.5,3.5,70,0.00,,,0.00,WeatherDisplay:10.37,2013-05-14 06:54:00,
2013-05-14 01:59:00,62.2,51.9,28.59,South,180,3.5,3.5,69,0.00,,,0.00,WeatherDisplay:10.37,2013-05-14 06:59:00,
2013-05-14 02:04:00,62.4,52.1,28.59,South,180,3.5,3.5,69,0.00,,,0.00,WeatherDisplay:10.37,2013-05-14 07:04:00,
2013-05-14 02:09:00,62.4,52.1,28.59,South,180,3.5,3.5,69,0.00,,,0.00,WeatherDisplay:10.37,2013-05-14 07:09:00,
2013-05-14 02:14:00,62.4,52.1,28.58,South,180,3.5,3.5,69,0.00,,,0.00,WeatherDisplay:10.37,2013-05-14 07:14:00,
2013-05-14 02:19:00,62.1,52.2,28.58,South,180,3.5,3.5,70,0.00,,,0.00,WeatherDisplay:10.37,2013-05-14 07:19:00,
2013-05-14 02:25:00,61.5,52.4,28.58,South,180,4.6,4.6,72,0.00,,,0.00,WeatherDisplay:10.37,2013-05-14 07:25:00,
2013-05-14 02:30:00,61.0,52.3,28.58,South,180,3.5,3.5,73,0.00,,,0.00,WeatherDisplay:10.37,2013-05-14 07:30:00,
2013-05-14 02:35:00,60.6,52.3,28.58,South,180,3.5,3.5,74,0.00,,,0.00,WeatherDisplay:10.37,2013-05-14 07:35:00,
2013-05-14 02:40:00,60.8,52.8,28.58,South,180,3.5,3.5,75,0.00,,,0.00,WeatherDisplay:10.37,2013-05-14 07:40:00,
2013-05-14 02:45:00,61.0,53.0,28.58,South,180,3.5,3.5,75,0.00,,,0.00,WeatherDisplay:10.37,2013-05-14 07:45:00,
2013-05-14 02:50:00,61.3,53.0,28.58,SSE,158,3.5,3.5,74,0.00,,,0.00,WeatherDisplay:10.37,2013-05-14 07:50:00,
2013-05-14 02:56:00,61.5,52.8,28.58,South,180,3.5,3.5,73,0.00,,,0.00,WeatherDisplay:10.37,2013-05-14 07:56:00,
2013-05-14 03:01:00,61.3,52.6,28.58,South,180,3.5,3.5,73,0.00,,,0.00,WeatherDisplay:10.37,2013-05-14 08:01:00,
2013-05-14 03:06:00,61.3,52.6,28.58,South,180,3.5,3.5,73,0.00,,,0.00,WeatherDisplay:10.37,2013-05-14 08:06:00,
2013-05-14 03:11:00,60.8,52.8,28.58,South,180,3.5,3.5,75,0.00,,,0.00,WeatherDisplay:10.37,2013-05-14 08:11:00,
2013-05-14 03:16:00,60.6,52.6,28.57,SW,225,3.5,3.5,75,0.00,,,0.00,WeatherDisplay:10.37,2013-05-14 08:16:00,
2013-05-14 03:22:00,60.6,53.0,28.57,South,180,5.8,5.8,76,0.00,,,0.00,WeatherDisplay:10.37,2013-05-14 08:22:00,
2013-05-14 03:27:00,60.8,53.2,28.57,South,180,4.6,4.6,76,0.00,,,0.00,WeatherDisplay:10.37,2013-05-14 08:27:00,
2013-05-14 03:32:00,60.6,53.0,28.57,South,180,4.6,4.6,76,0.00,,,0.00,WeatherDisplay:10.37,2013-05-14 08:32:00,
2013-05-14 03:37:00,60.6,53.0,28.57,SW,225,4.6,4.6,76,0.00,,,0.00,WeatherDisplay:10.37,2013-05-14 08:37:00,
2013-05-14 03:42:00,60.8,53.5,28.57,South,180,4.6,4.6,77,0.00,,,0.00,WeatherDisplay:10.37,2013-05-14 08:42:00,
2013-05-14 03:48:00,61.2,53.2,28.57,South,180,4.6,4.6,75,0.00,,,0.00,WeatherDisplay:10.37,2013-05-14 08:48:00,
2013-05-14 03:53:00,61.3,53.3,28.57,South,180,3.5,3.5,75,0.00,,,0.00,WeatherDisplay:10.37,2013-05-14 08:53:00,
2013-05-14 03:58:00,61.3,53.3,28.57,South,180,3.5,3.5,75,0.00,,,0.00,WeatherDisplay:10.37,2013-05-14 08:58:00,
2013-05-14 04:03:00,61.3,53.3,28.57,SSW,202,2.3,2.3,75,0.00,,,0.00,WeatherDisplay:10.37,2013-05-14 09:03:00,
2013-05-14 04:09:00,61.5,53.2,28.57,SSW,202,2.3,0.0,74,0.00,,,0.00,WeatherDisplay:10.37,2013-05-14 09:09:00,
2013-05-14 04:14:00,61.5,53.2,28.57,South,180,1.2,1.2,74,0.00,,,0.00,WeatherDisplay:10.37,2013-05-14 09:14:00,
2013-05-14 04:19:00,61.3,53.0,28.57,SE,135,2.3,2.3,74,0.00,,,0.00,WeatherDisplay:10.37,2013-05-14 09:19:00,
2013-05-14 04:24:00,61.2,52.8,28.56,South,180,2.3,2.3,74,0.00,,,0.00,WeatherDisplay:10.37,2013-05-14 09:24:00,
2013-05-14 04:29:00,60.8,52.5,28.56,South,180,3.5,3.5,74,0.00,,,0.00,WeatherDisplay:10.37,2013-05-14 09:29:00,
2013-05-14 04:34:00,61.7,54.1,28.56,SE,135,6.9,6.9,76,0.00,,,0.00,WeatherDisplay:10.37,2013-05-14 09:34:00,
2013-05-14 04:39:00,63.1,54.3,28.56,SE,135,8.1,8.1,73,0.00,,,0.00,WeatherDisplay:10.37,2013-05-14 09:39:00,
2013-05-14 04:44:00,63.0,54.2,28.56,SSE,158,8.1,8.1,73,0.00,,,0.00,WeatherDisplay:10.37,2013-05-14 09:44:00,
2013-05-14 04:50:00,62.4,54.0,28.56,South,180,6.9,6.9,74,0.00,,,0.00,WeatherDisplay:10.37,2013-05-14 09:50:00,
2013-05-14 04:55:00,62.1,54.0,28.56,South,180,5.8,5.8,75,0.00,,,0.00,WeatherDisplay:10.37,2013-05-14 09:55:00,
2013-05-14 05:00:00,61.0,53.7,28.56,South,180,7.6,7.6,77,0.00,,,0.00,WeatherDisplay:10.37,2013-05-14 10:00:00,
2013-05-14 05:05:00,61.0,53.7,28.56,South,180,8.1,8.1,77,0.00,,,0.00,WeatherDisplay:10.37,2013-05-14 10:05:00,
2013-05-14 05:10:00,60.3,53.7,28.56,SSE,158,5.8,5.8,79,0.00,,,0.00,WeatherDisplay:10.37,2013-05-14 10:10:00,
2013-05-14 05:16:00,60.6,54.1,28.55,South,180,8.1,8.1,79,0.00,,,0.00,WeatherDisplay:10.37,2013-05-14 10:16:00,
2013-05-14 05:21:00,60.6,53.7,28.56,South,180,6.9,6.9,78,0.00,,,0.00,WeatherDisplay:10.37,2013-05-14 10:21:00,
2013-05-14 05:26:00,60.3,53.7,28.56,SE,135,8.1,8.1,79,0.00,,,0.00,WeatherDisplay:10.37,2013-05-14 10:26:00,
2013-05-14 05:31:00,60.1,53.5,28.55,South,180,5.8,5.8,79,0.00,,,0.00,WeatherDisplay:10.37,2013-05-14 10:31:00,
2013-05-14 05:37:00,59.5,53.7,28.55,SE,135,5.8,5.8,81,0.00,,,0.00,WeatherDisplay:10.37,2013-05-14 10:37:00,
2013-05-14 05:42:00,59.7,53.9,28.55,South,180,9.2,9.2,81,0.00,,,0.00,WeatherDisplay:10.37,2013-05-14 10:42:00,
2013-05-14 05:47:00,60.1,53.9,28.55,South,180,5.8,5.8,80,0.00,,,0.00,WeatherDisplay:10.37,2013-05-14 10:47:00,
2013-05-14 05:52:00,59.9,53.7,28.55,South,180,8.1,8.1,80,0.00,,,0.00,WeatherDisplay:10.37,2013-05-14 10:52:00,
2013-05-14 05:57:00,60.1,53.9,28.55,South,180,9.2,9.2,80,0.00,,,0.00,WeatherDisplay:10.37,2013-05-14 10:57:00,
2013-05-14 06:03:00,60.1,53.9,28.54,SE,135,8.1,8.1,80,0.00,,,0.00,WeatherDisplay:10.37,2013-05-14 11:03:00,
2013-05-14 06:08:00,60.3,54.1,28.54,South,180,8.1,8.1,80,0.00,,,0.00,WeatherDisplay:10.37,2013-05-14 11:08:00,
2013-05-14 06:13:00,60.1,53.9,28.54,SE,135,6.9,6.9,80,0.00,,,0.00,WeatherDisplay:10.37,2013-05-14 11:13:00,
2013-05-14 06:18:00,59.9,54.1,28.54,South,180,5.8,5.8,81,0.00,,,0.00,WeatherDisplay:10.37,2013-05-14 11:18:00,
2013-05-14 06:23:00,60.3,54.4,28.54,SE,135,10.4,10.4,81,0.00,,,0.00,WeatherDisplay:10.37,2013-05-14 11:23:00,
2013-05-14 06:28:00,60.8,54.2,28.54,South,180,8.1,8.1,79,0.00,,,0.00,WeatherDisplay:10.37,2013-05-14 11:28:00,
2013-05-14 06:33:00,60.4,54.2,28.54,South,180,8.1,8.1,80,0.00,,,0.00,WeatherDisplay:10.37,2013-05-14 11:33:00,
2013-05-14 06:38:00,60.4,54.6,28.54,SSE,158,9.2,9.2,81,0.00,,,0.00,WeatherDisplay:10.37,2013-05-14 11:38:00,
2013-05-14 06:43:00,60.8,54.6,28.54,SSE,158,9.2,9.2,80,0.00,,,0.00,WeatherDisplay:10.37,2013-05-14 11:43:00,
2013-05-14 06:49:00,61.5,54.9,28.54,SE,135,8.1,8.1,79,0.00,,,0.00,WeatherDisplay:10.37,2013-05-14 11:49:00,
2013-05-14 06:54:00,61.7,55.1,28.54,South,180,10.4,10.4,79,0.00,,,0.00,WeatherDisplay:10.37,2013-05-14 11:54:00,
2013-05-14 06:59:00,62.1,55.1,28.54,South,180,9.2,9.2,78,0.00,,,0.00,WeatherDisplay:10.37,2013-05-14 11:59:00,
2013-05-14 07:04:00,62.2,55.3,28.53,SE,135,9.2,9.2,78,0.00,,,0.00,WeatherDisplay:10.37,2013-05-14 12:04:00,
2013-05-14 07:09:00,63.1,55.4,28.53,SE,135,10.4,10.4,76,0.00,,,0.00,WeatherDisplay:10.37,2013-05-14 12:09:00,
2013-05-14 07:14:00,63.7,56.0,28.54,South,180,10.4,10.4,76,0.00,,,0.00,WeatherDisplay:10.37,2013-05-14 12:14:00,
2013-05-14 07:20:00,64.2,56.1,28.54,South,180,10.4,10.4,75,0.00,,,0.00,WeatherDisplay:10.37,2013-05-14 12:20:00,
2013-05-14 07:25:00,64.9,56.8,28.54,SSE,158,10.4,10.4,75,0.00,,,0.00,WeatherDisplay:10.37,2013-05-14 12:25:00,
2013-05-14 07:30:00,65.5,57.0,28.53,South,180,9.2,9.2,74,0.00,,,0.00,WeatherDisplay:10.37,2013-05-14 12:30:00,
2013-05-14 07:35:00,66.0,57.1,28.53,South,180,10.4,10.4,73,0.00,,,0.00,WeatherDisplay:10.37,2013-05-14 12:35:00,
2013-05-14 07:40:00,66.4,57.1,28.53,South,180,12.7,12.7,72,0.00,,,0.00,WeatherDisplay:10.37,2013-05-14 12:40:00,
2013-05-14 07:45:00,67.1,57.4,28.53,SE,135,12.7,12.7,71,0.00,,,0.00,WeatherDisplay:10.37,2013-05-14 12:45:00,
2013-05-14 07:50:00,67.8,57.7,28.53,SE,135,11.5,11.5,70,0.00,,,0.00,WeatherDisplay:10.37,2013-05-14 12:50:00,
2013-05-14 07:55:00,68.2,58.0,28.53,SE,135,12.7,12.7,70,0.00,,,0.00,WeatherDisplay:10.37,2013-05-14 12:55:00,
2013-05-14 08:00:00,68.7,58.1,28.53,South,180,12.7,12.7,69,0.00,,,0.00,WeatherDisplay:10.37,2013-05-14 13:00:00,
2013-05-14 08:06:00,68.7,58.1,28.53,South,180,10.4,10.4,69,0.00,,,0.00,WeatherDisplay:10.37,2013-05-14 13:06:00,
2013-05-14 08:11:00,69.3,57.8,28.52,South,180,12.7,12.7,67,0.00,,,0.00,WeatherDisplay:10.37,2013-05-14 13:11:00,
2013-05-14 08:16:00,70.2,57.8,28.52,South,180,13.8,13.8,65,0.00,,,0.00,WeatherDisplay:10.37,2013-05-14 13:16:00,
2013-05-14 08:22:00,70.3,57.6,28.52,South,180,15.0,15.0,64,0.00,,,0.00,WeatherDisplay:10.37,2013-05-14 13:22:00,
2013-05-14 08:27:00,70.2,57.4,28.52,South,180,13.8,13.8,64,0.00,,,0.00,WeatherDisplay:10.37,2013-05-14 13:27:00,
2013-05-14 08:32:00,71.4,58.2,28.52,South,180,12.7,12.7,63,0.00,,,0.00,WeatherDisplay:10.37,2013-05-14 13:32:00,
2013-05-14 08:37:00,72.0,57.8,28.52,SE,135,12.7,12.7,61,0.00,,,0.00,WeatherDisplay:10.37,2013-05-14 13:37:00,
2013-05-14 08:42:00,72.9,58.6,28.51,South,180,12.7,12.7,61,0.00,,,0.00,WeatherDisplay:10.37,2013-05-14 13:42:00,
2013-05-14 08:49:00,73.4,57.7,28.51,SE,135,13.8,13.8,58,0.00,,,0.00,WeatherDisplay:10.37,2013-05-14 13:49:00,
2013-05-14 08:54:00,73.9,58.2,28.51,SE,135,12.7,12.7,58,0.00,,,0.00,WeatherDisplay:10.37,2013-05-14 13:54:00,
2013-05-14 08:59:00,74.7,58.4,28.51,SSE,158,13.8,13.8,57,0.00,,,0.00,WeatherDisplay:10.37,2013-05-14 13:59:00,
2013-05-14 09:04:00,74.7,57.9,28.50,SE,135,13.8,13.8,56,0.00,,,0.00,WeatherDisplay:10.37,2013-05-14 14:04:00,
2013-05-14 09:10:00,75.7,57.9,28.50,South,180,15.0,15.0,54,0.00,,,0.00,WeatherDisplay:10.37,2013-05-14 14:10:00,
2013-05-14 09:15:00,76.5,58.6,28.50,SSE,158,13.8,13.8,54,0.00,,,0.00,WeatherDisplay:10.37,2013-05-14 14:15:00,
2013-05-14 09:21:00,76.8,58.4,28.50,South,180,15.0,15.0,53,0.00,,,0.00,WeatherDisplay:10.37,2013-05-14 14:21:00,
2013-05-14 09:26:00,77.4,58.9,28.49,South,180,15.0,15.0,53,0.00,,,0.00,WeatherDisplay:10.37,2013-05-14 14:26:00,
2013-05-14 09:31:00,77.9,58.3,28.49,South,180,17.3,17.3,51,0.00,,,0.00,WeatherDisplay:10.37,2013-05-14 14:31:00,
2013-05-14 09:36:00,78.8,58.6,28.48,South,180,16.1,16.1,50,0.00,,,0.00,WeatherDisplay:10.37,2013-05-14 14:36:00,
2013-05-14 09:42:00,79.0,59.3,28.48,SE,135,15.0,15.0,51,0.00,,,0.00,WeatherDisplay:10.37,2013-05-14 14:42:00,
2013-05-14 09:47:00,79.5,59.2,28.48,South,180,17.3,17.3,50,0.00,,,0.00,WeatherDisplay:10.37,2013-05-14 14:47:00,
2013-05-14 09:52:00,81.1,58.4,28.47,South,180,15.0,15.0,46,0.00,,,0.00,WeatherDisplay:10.37,2013-05-14 14:52:00,
2013-05-14 09:57:00,83.3,57.1,28.47,South,180,16.1,16.1,41,0.00,,,0.00,WeatherDisplay:10.37,2013-05-14 14:57:00,
2013-05-14 10:02:00,84.0,57.1,28.47,South,180,17.3,17.3,40,0.00,,,0.00,WeatherDisplay:10.37,2013-05-14 15:02:00,
2013-05-14 10:07:00,84.7,57.0,28.47,South,180,17.3,17.3,39,0.00,,,0.00,WeatherDisplay:10.37,2013-05-14 15:07:00,
2013-05-14 10:12:00,85.6,57.1,28.47,South,180,17.3,17.3,38,0.00,,,0.00,WeatherDisplay:10.37,2013-05-14 15:12:00,
2013-05-14 10:18:00,86.4,57.8,28.46,South,180,17.3,17.3,38,0.00,,,0.00,WeatherDisplay:10.37,2013-05-14 15:18:00,
2013-05-14 10:23:00,87.8,56.7,28.46,South,180,17.3,17.3,35,0.00,,,0.00,WeatherDisplay:10.37,2013-05-14 15:23:00,
2013-05-14 10:28:00,88.5,58.2,28.46,South,180,16.1,16.1,36,0.00,,,0.00,WeatherDisplay:10.37,2013-05-14 15:28:00,
2013-05-14 10:34:00,90.3,52.8,28.46,South,180,15.0,15.0,28,0.00,,,0.00,WeatherDisplay:10.37,2013-05-14 15:34:00,
2013-05-14 10:40:00,91.2,49.4,28.45,South,180,16.8,16.8,24,0.00,,,0.00,WeatherDisplay:10.37,2013-05-14 15:40:00,
2013-05-14 10:45:00,91.8,50.9,28.45,South,180,17.3,17.3,25,0.00,,,0.00,WeatherDisplay:10.37,2013-05-14 15:45:00,
2013-05-14 10:50:00,92.7,52.8,28.45,South,180,15.0,15.0,26,0.00,,,0.00,WeatherDisplay:10.37,2013-05-14 15:50:00,
2013-05-14 10:55:00,94.6,44.6,28.45,SW,225,25.3,25.3,18,0.00,,,0.00,WeatherDisplay:10.37,2013-05-14 15:55:00,
2013-05-14 11:01:00,95.9,44.1,28.45,SW,225,20.7,20.7,17,0.00,,,0.00,WeatherDisplay:10.37,2013-05-14 16:01:00,
2013-05-14 11:07:00,97.0,43.4,28.45,SW,225,16.1,16.1,16,0.00,,,0.00,WeatherDisplay:10.37,2013-05-14 16:07:00,
2013-05-14 11:12:00,97.5,43.8,28.44,NW,315,19.6,19.6,16,0.00,,,0.00,WeatherDisplay:10.37,2013-05-14 16:12:00,
2013-05-14 11:17:00,98.2,40.9,28.44,SW,225,17.3,17.3,14,0.00,,,0.00,WeatherDisplay:10.37,2013-05-14 16:17:00,
2013-05-14 11:23:00,99.1,41.6,28.44,North,0,21.9,21.9,14,0.00,,,0.00,WeatherDisplay:10.37,2013-05-14 16:23:00,
2013-05-14 11:29:00,98.4,41.0,28.44,SW,225,16.1,16.1,14,0.00,,,0.00,WeatherDisplay:10.37,2013-05-14 16:29:00,
2013-05-14 11:34:00,98.1,40.7,28.45,NW,315,17.3,17.3,14,0.00,,,0.00,WeatherDisplay:10.37,2013-05-14 16:34:00,
2013-05-14 11:39:00,98.1,40.7,28.45,West,270,17.3,17.3,14,0.00,,,0.00,WeatherDisplay:10.37,2013-05-14 16:39:00,
2013-05-14 11:45:00,97.9,40.6,28.45,West,266,12.0,20.0,14,0.00,,,0.00,WeatherDisplay:10.37,2013-05-14 16:45:00,
2013-05-14 11:50:00,97.7,40.5,28.45,West,270,12.7,12.7,14,0.00,,,0.00,WeatherDisplay:10.37,2013-05-14 16:50:00,
2013-05-14 12:31:00,101.8,37.5,28.43,NW,315,15.0,15.0,11,0.00,,,0.00,WeatherDisplay:10.37,2013-05-14 17:31:00,
2013-05-14 12:36:00,102.7,35.7,28.43,NW,315,20.7,20.7,10,0.00,,,0.00,WeatherDisplay:10.37,2013-05-14 17:36:00,
2013-05-14 12:41:00,102.0,37.6,28.42,SW,225,18.4,18.4,11,0.00,,,0.00,WeatherDisplay:10.37,2013-05-14 17:41:00,
2013-05-14 12:46:00,102.0,35.2,28.43,North,0,19.6,19.6,10,0.00,,,0.00,WeatherDisplay:10.37,2013-05-14 17:46:00,
2013-05-14 12:51:00,102.6,38.0,28.43,WNW,292,20.7,20.7,11,0.00,,,0.00,WeatherDisplay:10.37,2013-05-14 17:51:00,
2013-05-14 12:57:00,102.7,35.7,28.42,SW,225,25.3,25.3,10,0.00,,,0.00,WeatherDisplay:10.37,2013-05-14 17:57:00,
2013-05-14 13:02:00,101.7,37.3,28.42,NW,315,15.0,15.0,11,0.00,,,0.00,WeatherDisplay:10.37,2013-05-14 18:02:00,
2013-05-14 13:07:00,101.1,39.1,28.42,NW,315,15.0,15.0,12,0.00,,,0.00,WeatherDisplay:10.37,2013-05-14 18:07:00,
2013-05-14 13:12:00,100.6,38.7,28.42,West,270,12.7,12.7,12,0.00,,,0.00,WeatherDisplay:10.37,2013-05-14 18:12:00,
2013-05-14 13:18:00,99.9,42.1,28.42,NW,315,12.7,12.7,14,0.00,,,0.00,WeatherDisplay:10.37,2013-05-14 18:18:00,
2013-05-14 13:23:00,97.9,44.1,28.43,SW,225,11.5,11.5,16,0.00,,,0.00,WeatherDisplay:10.37,2013-05-14 18:23:00,
2013-05-14 13:28:00,99.5,43.7,28.42,NW,315,8.1,8.1,15,0.00,,,0.00,WeatherDisplay:10.37,2013-05-14 18:28:00,
2013-05-14 13:34:00,101.7,45.4,28.42,West,270,11.5,11.5,15,0.00,,,0.00,WeatherDisplay:10.37,2013-05-14 18:34:00,
2013-05-14 13:39:00,102.6,46.1,28.43,NW,315,10.4,10.4,15,0.00,,,0.00,WeatherDisplay:10.37,2013-05-14 18:39:00,
2013-05-14 13:44:00,102.7,46.2,28.43,North,0,10.4,10.4,15,0.00,,,0.00,WeatherDisplay:10.37,2013-05-14 18:44:00,
2013-05-14 13:50:00,101.5,45.2,28.43,NW,315,10.4,10.4,15,0.00,,,0.00,WeatherDisplay:10.37,2013-05-14 18:50:00,
2013-05-14 13:55:00,101.7,39.6,28.43,NW,315,16.1,16.1,12,0.00,,,0.00,WeatherDisplay:10.37,2013-05-14 18:55:00,
2013-05-14 14:00:00,101.8,45.5,28.43,NW,315,10.4,10.4,15,0.00,,,0.00,WeatherDisplay:10.37,2013-05-14 19:00:00,
2013-05-14 14:05:00,102.0,47.4,28.43,WNW,292,9.2,9.2,16,0.00,,,0.00,WeatherDisplay:10.37,2013-05-14 19:05:00,
2013-05-14 14:10:00,102.4,44.1,28.43,NW,315,13.8,13.8,14,0.00,,,0.00,WeatherDisplay:10.37,2013-05-14 19:10:00,
2013-05-14 14:15:00,101.7,41.6,28.43,NW,315,12.7,12.7,13,0.00,,,0.00,WeatherDisplay:10.37,2013-05-14 19:15:00,
2013-05-14 14:20:00,102.0,43.8,28.44,NW,315,10.4,10.4,14,0.00,,,0.00,WeatherDisplay:10.37,2013-05-14 19:20:00,
2013-05-14 14:26:00,99.9,40.2,28.43,NW,315,10.4,10.4,13,0.00,,,0.00,WeatherDisplay:10.37,2013-05-14 19:26:00,
2013-05-14 14:31:00,98.8,44.8,28.43,NW,315,11.5,11.5,16,0.00,,,0.00,WeatherDisplay:10.37,2013-05-14 19:31:00,
2013-05-14 14:36:00,98.6,41.2,28.44,NW,315,10.4,10.4,14,0.00,,,0.00,WeatherDisplay:10.37,2013-05-14 19:36:00,
2013-05-14 14:41:00,98.4,47.6,28.44,NW,315,8.1,8.1,18,0.00,,,0.00,WeatherDisplay:10.37,2013-05-14 19:41:00,
2013-05-14 14:47:00,98.4,54.2,28.44,NW,315,11.5,11.5,23,0.00,,,0.00,WeatherDisplay:10.37,2013-05-14 19:47:00,
2013-05-14 14:52:00,99.7,47.1,28.44,NW,315,10.4,10.4,17,0.00,,,0.00,WeatherDisplay:10.37,2013-05-14 19:52:00,
2013-05-14 14:57:00,99.1,45.1,28.44,NW,315,9.2,9.2,16,0.00,,,0.00,WeatherDisplay:10.37,2013-05-14 19:57:00,
2013-05-14 15:02:00,99.7,48.6,28.44,North,0,10.4,10.4,18,0.00,,,0.00,WeatherDisplay:10.37,2013-05-14 20:02:00,
2013-05-14 15:07:00,100.9,43.0,28.44,North,0,10.4,10.4,14,0.00,,,0.00,WeatherDisplay:10.37,2013-05-14 20:07:00,
2013-05-14 15:12:00,101.1,46.7,28.44,NW,315,12.7,12.7,16,0.00,,,0.00,WeatherDisplay:10.37,2013-05-14 20:12:00,
2013-05-14 15:17:00,101.3,46.8,28.44,NW,315,10.4,10.4,16,0.00,,,0.00,WeatherDisplay:10.37,2013-05-14 20:17:00,
2013-05-14 15:23:00,101.5,45.2,28.44,NW,315,9.2,9.2,15,0.00,,,0.00,WeatherDisplay:10.37,2013-05-14 20:23:00,
2013-05-14 15:28:00,101.7,45.4,28.44,North,0,8.1,8.1,15,0.00,,,0.00,WeatherDisplay:10.37,2013-05-14 20:28:00,
2013-05-14 15:33:00,101.7,47.1,28.44,NW,315,8.1,8.1,16,0.00,,,0.00,WeatherDisplay:10.37,2013-05-14 20:33:00,
2013-05-14 15:38:00,101.8,45.5,28.44,NW,315,12.7,12.7,15,0.00,,,0.00,WeatherDisplay:10.37,2013-05-14 20:38:00,
2013-05-14 15:44:00,102.2,44.0,28.45,NW,315,10.4,10.4,14,0.00,,,0.00,WeatherDisplay:10.37,2013-05-14 20:44:00,
2013-05-14 15:49:00,102.0,43.8,28.44,North,0,8.1,8.1,14,0.00,,,0.00,WeatherDisplay:10.37,2013-05-14 20:49:00,
2013-05-14 15:55:00,102.0,43.8,28.44,North,0,10.7,10.7,14,0.00,,,0.00,WeatherDisplay:10.37,2013-05-14 20:55:00,
2013-05-14 16:00:00,102.1,43.9,28.44,NW,318,6.0,11.0,14,0.00,,,0.00,WeatherDisplay:10.37,2013-05-14 21:00:00,
2013-05-14 16:06:00,102.2,45.8,28.45,NW,315,10.4,10.4,15,0.00,,,0.00,WeatherDisplay:10.37,2013-05-14 21:06:00,
2013-05-14 16:12:00,103.1,42.8,28.44,NW,315,10.4,10.4,13,0.00,,,0.00,WeatherDisplay:10.37,2013-05-14 21:12:00,
2013-05-14 16:17:00,102.7,40.4,28.45,NE,45,9.2,9.2,12,0.00,,,0.00,WeatherDisplay:10.37,2013-05-14 21:17:00,
2013-05-14 16:23:00,101.7,43.6,28.44,North,0,12.7,12.7,14,0.00,,,0.00,WeatherDisplay:10.37,2013-05-14 21:23:00,
2013-05-14 16:29:00,99.0,44.9,28.44,North,0,8.1,8.1,16,0.00,,,0.00,WeatherDisplay:10.37,2013-05-14 21:29:00,
2013-05-14 16:30:00,61.0,45.6,28.69,NNE,20,2.0,5.0,57,0.00,CLR,,0.00,WeatherDisplay:10.37,2013-05-14 21:30:00,
2013-05-14 16:34:00,100.0,44.1,28.44,North,0,9.2,9.2,15,0.00,,,0.00,WeatherDisplay:10.37,2013-05-14 21:34:00,
2013-05-14 16:39:00,101.5,41.5,28.44,North,0,8.1,8.1,13,0.00,,,0.00,WeatherDisplay:10.37,2013-05-14 21:39:00,
2013-05-14 16:44:00,101.7,43.6,28.45,NW,315,10.4,10.4,14,0.00,,,0.00,WeatherDisplay:10.37,2013-05-14 21:44:00,
2013-05-14 16:45:00,59.9,45.5,28.71,NNW,338,1.0,5.0,59,0.00,CLR,,0.00,WeatherDisplay:10.37,2013-05-14 21:45:00,
2013-05-14 16:50:00,101.3,45.1,28.45,NW,315,11.5,11.5,15,0.00,,,0.00,WeatherDisplay:10.37,2013-05-14 21:50:00,
2013-05-14 16:55:00,101.7,45.4,28.45,NE,45,8.1,8.1,15,0.00,,,0.00,WeatherDisplay:10.37,2013-05-14 21:55:00,
2013-05-14 17:00:00,101.8,41.8,28.45,NW,315,11.5,11.5,13,0.00,,,0.00,WeatherDisplay:10.37,2013-05-14 22:00:00,
2013-05-14 17:05:00,102.2,44.0,28.45,NW,315,6.9,6.9,14,0.00,,,0.00,WeatherDisplay:10.37,2013-05-14 22:05:00,
2013-05-14 17:10:00,102.0,39.8,28.45,NW,315,4.6,4.6,12,0.00,,,0.00,WeatherDisplay:10.37,2013-05-14 22:10:00,
2013-05-14 17:15:00,101.5,41.5,28.45,NW,315,8.1,8.1,13,0.00,,,0.00,WeatherDisplay:10.37,2013-05-14 22:15:00,
2013-05-14 17:21:00,101.3,43.3,28.45,NW,315,10.4,10.4,14,0.00,,,0.00,WeatherDisplay:10.37,2013-05-14 22:21:00,
2013-05-14 17:26:00,100.4,38.6,28.45,NNE,22,6.9,6.9,12,0.00,,,0.00,WeatherDisplay:10.37,2013-05-14 22:26:00,
2013-05-14 17:30:00,56.5,44.9,28.69,East,96,3.0,4.0,65,0.00,CLR,,0.00,WeatherDisplay:10.37,2013-05-14 22:30:00,
2013-05-14 17:31:00,100.8,40.9,28.45,NW,315,12.7,12.7,13,0.00,,,0.00,WeatherDisplay:10.37,2013-05-14 22:31:00,
2013-05-14 17:36:00,101.8,37.5,28.45,North,0,8.3,8.3,11,0.00,,,0.00,WeatherDisplay:10.37,2013-05-14 22:36:00,
2013-05-14 17:41:00,101.5,41.5,28.45,North,0,11.5,11.5,13,0.00,,,0.00,WeatherDisplay:10.37,2013-05-14 22:41:00,
2013-05-14 17:45:00,54.9,44.9,28.69,SSE,154,2.0,4.0,69,0.00,CLR,,0.00,WeatherDisplay:10.37,2013-05-14 22:45:00,
2013-05-14 17:46:00,100.9,39.0,28.45,NE,45,8.1,8.1,12,0.00,,,0.00,WeatherDisplay:10.37,2013-05-14 22:46:00,
2013-05-14 17:52:00,101.5,34.8,28.45,NE,45,6.9,6.9,10,0.00,,,0.00,WeatherDisplay:10.37,2013-05-14 22:52:00,
2013-05-14 17:57:00,101.1,34.5,28.45,North,0,12.7,12.7,10,0.00,,,0.00,WeatherDisplay:10.37,2013-05-14 22:57:00,
2013-05-14 18:00:00,55.6,44.4,28.70,ESE,111,0.0,4.0,66,0.00,CLR,,0.00,WeatherDisplay:10.37,2013-05-14 23:00:00,
2013-05-14 18:02:00,100.8,36.7,28.45,NE,45,8.1,8.1,11,0.00,,,0.00,WeatherDisplay:10.37,2013-05-14 23:02:00,
2013-05-14 18:07:00,99.9,38.2,28.45,NNE,22,5.8,5.8,12,0.00,,,0.00,WeatherDisplay:10.37,2013-05-14 23:07:00,
2013-05-14 18:12:00,99.5,40.0,28.46,North,0,5.8,5.8,13,0.00,,,0.00,WeatherDisplay:10.37,2013-05-14 23:12:00,
2013-05-14 18:15:00,56.1,45.3,28.70,East,90,3.0,4.0,67,0.00,CLR,,0.00,WeatherDisplay:10.37,2013-05-14 23:15:00,
2013-05-14 18:17:00,99.5,37.9,28.47,North,0,6.0,6.0,12,0.00,,,0.00,WeatherDisplay:10.37,2013-05-14 23:17:00,
2013-05-14 18:23:00,98.2,40.9,28.47,North,0,5.8,5.8,14,0.00,,,0.00,WeatherDisplay:10.37,2013-05-14 23:23:00,
2013-05-14 18:28:00,96.4,41.2,28.47,WNW,292,9.2,9.2,15,0.00,,,0.00,WeatherDisplay:10.37,2013-05-14 23:28:00,
2013-05-14 18:30:00,55.9,45.1,28.70,NE,45,3.0,4.0,67,0.00,CLR,,0.00,WeatherDisplay:10.37,2013-05-14 23:30:00,
2013-05-14 18:33:00,95.2,43.5,28.48,North,0,8.1,8.1,17,0.00,,,0.00,WeatherDisplay:10.37,2013-05-14 23:33:00,
2013-05-14 18:38:00,94.3,41.2,28.48,NW,315,12.7,12.7,16,0.00,,,0.00,WeatherDisplay:10.37,2013-05-14 23:38:00,
2013-05-14 18:43:00,94.5,42.9,28.48,North,0,8.1,8.1,17,0.00,,,0.00,WeatherDisplay:10.37,2013-05-14 23:43:00,
2013-05-14 18:45:00,56.5,44.9,28.72,NE,41,2.0,4.0,65,0.00,CLR,,0.00,WeatherDisplay:10.37,2013-05-14 23:45:00,
2013-05-14 18:49:00,94.5,41.3,28.48,NE,45,8.1,8.1,16,0.00,,,0.00,WeatherDisplay:10.37,2013-05-14 23:49:00,
2013-05-14 18:54:00,93.9,37.5,28.49,North,0,8.1,8.1,14,0.00,,,0.00,WeatherDisplay:10.37,2013-05-14 23:54:00,
2013-05-14 18:59:00,93.6,35.3,28.49,North,0,10.4,10.4,13,0.00,,,0.00,WeatherDisplay:10.37,2013-05-14 23:59:00,
2013-05-14 19:00:00,55.8,44.6,28.73,North,0,1.0,4.0,66,0.00,CLR,,0.00,WeatherDisplay:10.37,2013-05-15 00:00:00,
2013-05-14 19:04:00,93.0,34.9,28.49,North,0,9.2,9.2,13,0.00,,,0.00,WeatherDisplay:10.37,2013-05-15 00:04:00,
2013-05-14 19:09:00,92.5,32.5,28.49,North,0,9.2,9.2,12,0.00,,,0.00,WeatherDisplay:10.37,2013-05-15 00:09:00,
2013-05-14 19:14:00,91.9,32.1,28.50,North,0,12.7,12.7,12,0.00,,,0.00,WeatherDisplay:10.37,2013-05-15 00:14:00,
2013-05-14 19:15:00,52.5,43.8,28.75,NW,315,3.0,4.0,72,0.00,CLR,,0.00,WeatherDisplay:10.37,2013-05-15 00:15:00,
2013-05-14 19:20:00,91.6,33.8,28.50,North,0,3.5,3.5,13,0.00,,,0.00,WeatherDisplay:10.37,2013-05-15 00:20:00,
2013-05-14 19:25:00,90.9,33.2,28.50,North,0,8.1,8.1,13,0.00,,,0.00,WeatherDisplay:10.37,2013-05-15 00:25:00,
2013-05-14 19:30:00,90.7,33.1,28.50,NW,315,5.8,5.8,13,0.00,,,0.00,WeatherDisplay:10.37,2013-05-15 00:30:00,
2013-05-14 19:35:00,90.7,31.1,28.50,North,0,8.1,8.1,12,0.00,,,0.00,WeatherDisplay:10.37,2013-05-15 00:35:00,
2013-05-14 19:40:00,90.0,30.5,28.50,NE,45,5.8,5.8,12,0.00,,,0.00,WeatherDisplay:10.37,2013-05-15 00:40:00,
2013-05-14 19:45:00,88.9,29.7,28.51,North,0,4.6,4.6,12,0.00,,,0.00,WeatherDisplay:10.37,2013-05-15 00:45:00,
2013-05-14 19:51:00,88.0,29.0,28.51,North,0,10.4,10.4,12,0.00,,,0.00,WeatherDisplay:10.37,2013-05-15 00:51:00,
2013-05-14 19:56:00,87.3,30.4,28.52,North,0,3.5,3.5,13,0.00,,,0.00,WeatherDisplay:10.37,2013-05-15 00:56:00,
2013-05-14 20:00:00,54.9,46.4,28.78,NW,315,0.0,4.0,73,0.00,CLR,,0.00,WeatherDisplay:10.37,2013-05-15 01:00:00,
2013-05-14 20:01:00,86.5,27.9,28.52,North,0,5.8,5.8,12,0.00,,,0.00,WeatherDisplay:10.37,2013-05-15 01:01:00,
2013-05-14 20:06:00,85.8,31.1,28.52,North,0,4.6,4.6,14,0.00,,,0.00,WeatherDisplay:10.37,2013-05-15 01:06:00,
2013-05-14 20:11:00,84.9,30.4,28.52,North,0,4.6,4.6,14,0.00,,,0.00,WeatherDisplay:10.37,2013-05-15 01:11:00,
2013-05-14 20:15:00,56.7,47.0,28.79,South,180,0.0,2.0,70,0.00,CLR,,0.00,WeatherDisplay:10.37,2013-05-15 01:15:00,
2013-05-14 20:16:00,84.2,31.5,28.52,NNW,338,3.5,3.5,15,0.00,,,0.00,WeatherDisplay:10.37,2013-05-15 01:16:00,
2013-05-14 20:21:00,84.0,33.0,28.53,North,0,3.5,3.5,16,0.00,,,0.00,WeatherDisplay:10.37,2013-05-15 01:21:00,
2013-05-14 20:26:00,82.8,30.4,28.53,North,0,4.6,4.6,15,0.00,,,0.00,WeatherDisplay:10.37,2013-05-15 01:26:00,
2013-05-14 20:30:00,57.2,47.1,28.80,SW,236,1.0,2.0,69,0.00,CLR,,0.00,WeatherDisplay:10.37,2013-05-15 01:30:00,
2013-05-14 20:32:00,82.4,31.7,28.53,North,0,2.3,2.3,16,0.00,,,0.00,WeatherDisplay:10.37,2013-05-15 01:32:00,
2013-05-14 20:37:00,82.0,31.4,28.54,North,0,3.5,3.5,16,0.00,,,0.00,WeatherDisplay:10.37,2013-05-15 01:37:00,
2013-05-14 20:42:00,80.8,31.9,28.54,North,0,3.5,3.5,17,0.00,,,0.00,WeatherDisplay:10.37,2013-05-15 01:42:00,
2013-05-14 20:45:00,59.4,48.4,28.80,NNW,335,1.0,2.0,67,0.00,CLR,,0.00,WeatherDisplay:10.37,2013-05-15 01:45:00,
2013-05-14 20:47:00,79.9,32.6,28.54,North,0,3.5,3.5,18,0.00,,,0.00,WeatherDisplay:10.37,2013-05-15 01:47:00,
2013-05-14 20:52:00,79.2,33.3,28.55,North,0,3.5,3.5,19,0.00,,,0.00,WeatherDisplay:10.37,2013-05-15 01:52:00,
2013-05-14 20:57:00,78.3,33.9,28.54,NW,315,2.3,2.3,20,0.00,,,0.00,WeatherDisplay:10.37,2013-05-15 01:57:00,
2013-05-14 21:00:00,60.8,49.0,28.80,NNW,338,0.0,2.0,65,0.00,CLR,,0.00,WeatherDisplay:10.37,2013-05-15 02:00:00,
2013-05-14 21:02:00,77.9,33.6,28.55,North,0,2.3,2.3,20,0.00,,,0.00,WeatherDisplay:10.37,2013-05-15 02:02:00,
2013-05-14 21:08:00,77.0,34.1,28.55,North,0,3.5,3.5,21,0.00,,,0.00,WeatherDisplay:10.37,2013-05-15 02:08:00,
2013-05-14 21:13:00,76.3,34.6,28.56,North,0,3.5,3.5,22,0.00,,,0.00,WeatherDisplay:10.37,2013-05-15 02:13:00,
2013-05-14 21:15:00,62.1,48.0,28.79,NNE,33,3.0,6.0,60,0.00,CLR,,0.00,WeatherDisplay:10.37,2013-05-15 02:15:00,
2013-05-14 21:18:00,75.6,35.1,28.56,North,0,3.5,3.5,23,0.00,,,0.00,WeatherDisplay:10.37,2013-05-15 02:18:00,
2013-05-14 21:23:00,75.2,35.9,28.56,North,0,3.5,3.5,24,0.00,,,0.00,WeatherDisplay:10.37,2013-05-15 02:23:00,
2013-05-14 21:28:00,74.7,35.5,28.56,North,0,2.3,2.3,24,0.00,,,0.00,WeatherDisplay:10.37,2013-05-15 02:28:00,
2013-05-14 21:30:00,62.1,47.6,28.79,NNE,16,3.0,5.0,59,0.00,CLR,,0.00,WeatherDisplay:10.37,2013-05-15 02:30:00,
2013-05-14 21:33:00,74.1,36.0,28.57,NW,315,2.3,2.3,25,0.00,,,0.00,WeatherDisplay:10.37,2013-05-15 02:33:00,
2013-05-14 21:39:00,73.8,35.7,28.57,North,0,2.3,2.3,25,0.00,,,0.00,WeatherDisplay:10.37,2013-05-15 02:39:00,
2013-05-14 21:44:00,73.4,35.4,28.58,NW,315,2.3,2.3,25,0.00,,,0.00,WeatherDisplay:10.37,2013-05-15 02:44:00,
2013-05-14 21:45:00,62.4,47.4,28.79,NE,45,3.0,8.0,58,0.00,CLR,,0.00,WeatherDisplay:10.37,2013-05-15 02:45:00,
2013-05-14 21:49:00,72.9,35.0,28.58,NW,315,2.3,2.3,25,0.00,,,0.00,WeatherDisplay:10.37,2013-05-15 02:49:00,
2013-05-14 21:54:00,72.5,35.6,28.58,North,0,2.3,2.3,26,0.00,,,0.00,WeatherDisplay:10.37,2013-05-15 02:54:00,
2013-05-14 21:59:00,72.5,35.6,28.58,North,0,2.3,2.3,26,0.00,,,0.00,WeatherDisplay:10.37,2013-05-15 02:59:00,
2013-05-14 22:00:00,64.4,47.4,28.79,NE,45,6.0,8.0,54,0.00,CLR,,0.00,WeatherDisplay:10.37,2013-05-15 03:00:00,
2013-05-14 22:04:00,72.5,35.6,28.58,North,0,2.3,2.3,26,0.00,,,0.00,WeatherDisplay:10.37,2013-05-15 03:04:00,
2013-05-14 22:10:00,72.7,34.8,28.58,NW,315,2.3,2.3,25,0.00,,,0.00,WeatherDisplay:10.37,2013-05-15 03:10:00,
2013-05-14 22:14:00,72.6,35.7,28.58,NW,324,1.0,2.0,26,0.00,,,0.00,WeatherDisplay:10.37,2013-05-15 03:14:00,
2013-05-14 22:15:00,65.5,46.9,28.80,NE,40,7.0,9.0,51,0.00,CLR,,0.00,WeatherDisplay:10.37,2013-05-15 03:15:00,
2013-05-14 22:20:00,72.1,35.3,28.59,NW,315,1.2,1.2,26,0.00,,,0.00,WeatherDisplay:10.37,2013-05-15 03:20:00,
2013-05-14 22:25:00,71.8,36.0,28.59,NW,315,3.5,3.5,27,0.00,,,0.00,WeatherDisplay:10.37,2013-05-15 03:25:00,
2013-05-14 22:30:00,71.1,36.3,28.59,NW,315,3.5,3.5,28,0.00,,,0.00,WeatherDisplay:10.37,2013-05-15 03:30:00,
2013-05-14 22:35:00,70.2,35.5,28.60,NW,315,2.3,2.3,28,0.00,,,0.00,WeatherDisplay:10.37,2013-05-15 03:35:00,
2013-05-14 22:41:00,69.3,35.6,28.60,West,270,3.5,3.5,29,0.00,,,0.00,WeatherDisplay:10.37,2013-05-15 03:41:00,
2013-05-14 22:45:00,69.8,44.4,28.80,East,100,5.0,8.0,40,0.00,CLR,,0.00,WeatherDisplay:10.37,2013-05-15 03:45:00,
2013-05-14 22:46:00,68.9,36.2,28.60,NW,315,3.5,3.5,30,0.00,,,0.00,WeatherDisplay:10.37,2013-05-15 03:46:00,
2013-05-14 22:51:00,68.4,36.5,28.60,NW,315,2.3,2.3,31,0.00,,,0.00,WeatherDisplay:10.37,2013-05-15 03:51:00,
2013-05-14 22:56:00,67.8,36.1,28.60,NW,315,3.5,3.5,31,0.00,,,0.00,WeatherDisplay:10.37,2013-05-15 03:56:00,
2013-05-14 23:00:00,71.2,43.6,28.80,East,86,6.0,8.0,37,0.00,CLR,,0.00,WeatherDisplay:10.37,2013-05-15 04:00:00,
2013-05-14 23:01:00,67.3,36.4,28.60,NW,315,3.5,3.5,32,0.00,,,0.00,WeatherDisplay:10.37,2013-05-15 04:01:00,
2013-05-14 23:02:00,67.3,36.4,28.60,NW,315,3.5,3.5,32,0.00,,,0.00,WeatherDisplay:10.37,2013-05-15 04:02:00,
2013-05-14 23:04:00,67.3,36.4,28.60,NW,315,3.5,3.5,32,0.00,,,0.00,WeatherDisplay:10.37,2013-05-15 04:04:00,
2013-05-14 23:05:00,67.3,36.4,28.60,NW,315,3.5,3.5,32,0.00,,,0.00,WeatherDisplay:10.37,2013-05-15 04:05:00,
2013-05-14 23:10:00,66.9,36.1,28.60,NW,315,3.5,3.5,32,0.00,,,0.00,WeatherDisplay:10.37,2013-05-15 04:10:00,
2013-05-14 23:15:00,66.6,36.5,28.60,NW,315,3.5,3.5,33,0.00,,,0.00,WeatherDisplay:10.37,2013-05-15 04:15:00,
2013-05-14 23:21:00,66.0,36.8,28.60,NW,315,3.5,3.5,34,0.00,,,0.00,WeatherDisplay:10.37,2013-05-15 04:21:00,
2013-05-14 23:26:00,65.7,38.0,28.61,NW,315,3.5,3.5,36,0.00,,,0.00,WeatherDisplay:10.37,2013-05-15 04:26:00,
2013-05-14 23:30:00,73.9,41.4,28.80,East,90,8.0,11.0,31,0.00,CLR,,0.00,WeatherDisplay:10.37,2013-05-15 04:30:00,
2013-05-14 23:31:00,64.8,37.2,28.61,NW,315,3.5,3.5,36,0.00,,,0.00,WeatherDisplay:10.37,2013-05-15 04:31:00,
2013-05-14 23:36:00,64.8,37.2,28.61,NW,315,2.3,2.3,36,0.00,,,0.00,WeatherDisplay:10.37,2013-05-15 04:36:00,
2013-05-14 23:41:00,64.8,37.9,28.61,North,0,3.5,3.5,37,0.00,,,0.00,WeatherDisplay:10.37,2013-05-15 04:41:00,
2013-05-14 23:45:00,73.6,42.7,28.78,ENE,74,8.0,11.0,33,0.00,CLR,,0.00,WeatherDisplay:10.37,2013-05-15 04:45:00,
2013-05-14 23:47:00,65.1,37.5,28.61,NW,315,4.6,4.6,36,0.00,,,0.00,WeatherDisplay:10.37,2013-05-15 04:47:00,
2013-05-14 23:52:00,65.5,37.8,28.62,NW,315,3.5,3.5,36,0.00,,,0.00,WeatherDisplay:10.37,2013-05-15 04:52:00,
2013-05-14 23:57:00,65.5,37.8,28.62,NW,315,3.5,3.5,36,0.00,,,0.00,WeatherDisplay:10.37,2013-05-15 04:57:00,